Dewpoint
72 70 71 70 70 70 69 67 56 60 59 53 53 56 57 63 65 62 61 63 62 65 65 65 65 62 62 62 60 63 63 56 56 50 49 64 69 70 71 72 73 73 73 74 75 75 75 76 76 76 75 75 75 76 75 75 76 76 76 76 76 76 76 76 76 76 76 76 75 75 75 75 75 75 75 75 75 75 75 75 75 75 76 76 76 76 76 76 76 76 76 76 76 76 75 76 76
70 70 70 70 69 69 64 67 56 56 56 54 54 59 61 64 63 61 59 62 62 62 64 63 65 65 66 67 65 60 61 64 65 65 67 69 70 70 72 73 73 73 73 74 75 75 75 76 77 76 76 75 76 76 76 76 75 75 76 76 76 76 75 76 76 76 76 76 75 75 75 75 75 75 75 74 74 74 75 75 75 75 75 76 76 76 76 76 76 76 76 76 76 76 76 75 75
70 69 69 69 70 68 68 65 55 56 54 52 55 59 64 61 61 63 62 64 64 63 62 62 63 64 64 65 61 61 59 65 65 66 67 69 69 70 72 73 73 73 73 74 74 75 75 76 76 76 76 76 76 76 76 76 75 75 75 75 76 76 75 75 76 76 76 76 76 76 75 75 75 75 74 74 74 74 74 74 74 75 75 76 75 75 75 75 75 75 75 75 75 75 75 75 75
69 69 68 68 65 67 62 61 57 56 53 52 54 61 61 61 61 64 65 63 66 62 62 62 62 64 63 60 61 62 61 63 66 67 67 68 68 71 72 72 74 73 74 74 75 75 75 75 77 76 75 76 76 76 76 76 75 75 75 76 75 76 75 75 76 76 76 76 76 76 75 75 75 75 74 75 75 75 75 75 75 75 75 75 75 75 75 75 75 75 75 75 75 75 75 76 75
68 70 69 66 66 61 61 59 59 57 53 56 54 62 61 62 62 63 64 63 65 65 64 61 60 64 66 64 61 60 62 66 66 68 68 69 70 72 72 73 73 74 74 74 75 75 75 76 77 76 76 76 76 76 76 76 75 75 75 76 76 76 75 75 75 76 76 75 75 75 75 75 75 74 74 75 75 76 76 75 75 75 74 74 74 75 75 75 75 75 75 75 75 76 76 76 76
72 72 73 71 63 68 64 58 56 56 58 63 59 61 62 64 62 64 64 63 66 65 64 63 60 61 60 62 63 63 65 62 66 67 68 68 71 72 72 73 73 73 73 74 74 74 75 77 76 76 76 76 76 76 75 75 75 75 76 76 76 76 75 76 76 76 76 75 75 75 75 75 75 75 75 75 75 75 75 75 75 74 74 75 75 75 75 75 75 75 75 75 75 75 75 75 75
70 70 70 67 67 67 58 57 57 58 59 63 61 62 64 64 65 65 63 62 63 64 66 63 61 60 60 61 62 64 66 66 66 67 68 70 71 71 72 72 72 72 73 74 74 74 75 77 76 76 76 76 76 76 76 76 76 76 76 75 76 76 75 75 76 76 76 75 75 75 75 75 75 75 75 76 75 75 75 75 75 76 76 75 75 75 75 75 75 74 75 75 75 75 75 75 76
73 67 68 62 61 61 57 57 57 60 60 63 64 62 63 65 65 65 61 60 61 62 61 59 59 60 59 62 62 65 66 66 66 67 69 70 71 71 71 71 71 72 73 74 74 75 77 76 76 76 76 76 76 76 76 76 76 76 76 76 76 76 75 75 75 76 76 75 75 75 75 75 75 76 75 76 75 75 75 75 76 76 76 76 75 75 75 75 75 75 75 75 75 75 75 75 75
70 68 69 64 59 60 58 57 58 63 62 64 64 65 66 66 66 64 62 63 63 64 63 59 59 59 61 62 62 64 65 66 67 69 69 69 70 70 70 71 72 73 73 74 75 76 75 76 76 76 76 76 76 76 76 76 76 76 76 75 75 75 75 75 75 75 74 75 75 76 75 75 75 75 76 76 76 76 76 76 76 76 76 75 75 75 75 75 75 75 75 75 75 75 75 75 75
68 66 63 62 61 56 57 58 58 61 61 63 64 65 65 66 65 66 63 63 64 63 63 58 61 61 62 61 62 63 64 66 67 67 68 68 68 69 70 71 72 73 74 74 75 75 75 77 76 76 76 76 76 76 76 76 75 75 75 75 75 75 75 76 75 75 75 75 76 76 75 75 75 75 75 76 76 75 75 76 76 76 76 75 75 75 75 75 75 75 74 74 75 75 75 75 74
64 68 68 60 57 56 55 56 59 62 62 64 65 65 66 65 64 65 66 62 64 61 60 61 61 61 62 62 63 64 65 66 66 65 65 65 67 69 71 72 73 73 74 75 75 75 76 75 76 76 76 76 77 76 76 75 76 76 75 75 75 75 75 75 75 75 75 75 76 76 76 75 75 75 75 76 76 75 75 76 76 76 76 75 75 75 75 75 75 75 74 74 74 75 75 74 74
63 64 65 58 57 55 58 58 59 62 62 63 64 66 67 65 65 63 64 61 62 62 59 61 61 62 61 62 62 64 65 64 64 64 64 67 69 70 72 72 73 73 74 75 75 75 75 75 75 76 76 77 76 76 75 75 75 76 75 75 75 75 75 75 75 75 75 75 75 75 75 75 75 75 76 76 75 75 75 75 76 75 75 75 75 75 75 75 75 74 74 75 75 75 75 75 75
63 65 62 59 58 59 60 59 60 60 61 61 63 66 68 65 63 64 64 66 63 59 59 63 62 63 61 62 63 64 63 63 64 64 67 68 70 71 72 72 73 74 74 75 74 74 75 75 75 75 76 77 76 76 76 75 76 76 75 75 75 75 75 75 75 76 75 76 76 75 76 75 75 75 75 75 75 75 75 75 75 75 75 75 74 74 75 75 75 75 75 75 75 75 75 75 75
62 63 63 57 61 60 60 60 61 60 59 63 64 66 67 65 65 66 66 63 63 64 60 62 63 63 62 63 64 62 62 63 64 66 67 68 70 72 72 72 73 73 74 74 74 75 75 75 75 75 74 75 75 75 76 76 76 75 76 76 76 75 75 75 76 76 76 76 76 76 76 76 76 76 76 75 75 75 74 74 74 75 75 75 75 75 75 75 75 75 75 74 75 75 75 75 75
62 66 62 59 58 60 61 59 60 60 60 64 65 66 66 67 68 65 64 62 62 67 65 62 63 62 60 61 61 62 62 63 64 66 67 69 70 71 71 71 72 73 74 74 74 74 74 75 75 75 76 74 74 74 74 75 75 76 76 76 76 76 76 75 76 76 76 76 75 76 76 76 76 76 76 75 75 75 75 74 75 75 75 74 75 75 75 75 75 75 75 75 75 75 75 75 75
65 65 62 57 56 58 60 61 60 60 61 64 66 67 65 67 68 66 66 68 65 66 64 61 62 61 62 61 62 63 63 63 64 66 68 69 70 70 70 71 72 73 73 74 74 74 74 74 74 74 74 74 74 74 75 75 75 76 76 76 76 76 76 76 76 76 75 75 76 76 76 76 76 75 75 74 75 75 75 74 75 74 74 74 75 75 76 75 75 75 75 75 75 75 75 74 75
67 65 57 56 55 58 61 61 61 57 63 65 67 65 63 63 68 68 70 69 65 65 64 61 60 63 62 62 63 63 63 63 65 67 68 68 69 69 71 71 72 72 73 73 74 74 74 74 74 74 74 74 74 74 74 75 75 76 75 76 76 76 76 76 76 76 76 76 75 75 75 76 75 75 75 75 75 75 76 75 75 74 74 74 75 76 76 75 75 76 76 76 76 75 75 75 75
65 59 57 56 59 60 62 60 62 63 63 65 65 66 64 63 65 66 67 65 66 65 65 61 61 61 62 62 63 63 62 63 65 66 67 67 68 69 69 70 71 71 72 72 73 74 74 74 74 74 74 74 74 75 75 75 76 75 75 75 75 75 75 75 75 76 77 76 76 76 76 76 75 75 75 76 76 75 75 75 75 74 74 75 75 76 76 75 76 76 75 75 75 75 76 74 75
61 60 58 56 61 61 63 62 64 64 63 66 65 66 64 64 66 67 65 63 64 62 64 61 59 60 61 62 62 61 61 63 64 65 66 67 68 68 69 70 70 71 71 72 73 73 74 74 74 74 74 74 74 75 75 76 75 75 75 75 75 76 76 76 76 76 75 75 76 76 76 76 75 76 76 77 77 76 75 75 74 74 74 75 75 76 76 76 76 75 75 75 75 76 75 73 73
61 59 57 58 62 62 64 63 64 65 65 65 66 67 65 66 66 68 64 63 63 63 60 60 58 59 60 60 61 60 60 62 63 65 66 67 67 68 68 69 69 70 70 71 72 73 73 73 73 74 74 74 74 75 75 75 75 75 75 75 75 75 75 76 75 75 76 76 76 75 75 75 75 75 77 76 76 75 74 74 75 75 75 75 75 77 76 76 76 76 75 76 77 76 73 74 74
59 57 56 57 61 61 64 66 65 63 67 66 66 67 65 66 67 67 65 63 63 63 62 59 58 59 59 59 60 59 60 60 62 65 66 66 67 68 68 69 69 70 70 71 72 73 73 73 73 73 74 74 74 75 75 75 75 75 74 75 75 75 75 75 75 75 75 75 75 75 75 75 75 75 75 75 75 75 74 74 75 74 74 75 77 74 75 75 75 74 74 76 74 74 73 73 73
56 56 56 60 60 59 64 66 67 63 66 67 66 64 64 69 66 66 65 62 61 64 65 59 59 59 58 58 58 58 59 59 61 63 64 66 67 67 68 69 69 70 71 71 72 72 73 73 73 73 74 74 74 75 75 75 75 74 74 74 75 74 74 74 75 75 75 75 74 75 76 75 75 75 74 74 74 74 74 75 75 75 75 75 76 74 74 74 73 73 74 74 74 74 73 74 74
52 54 55 57 59 59 62 63 66 67 65 65 64 66 67 65 65 67 65 63 65 67 67 62 58 58 58 58 58 57 58 59 61 62 64 65 66 67 67 68 69 69 71 71 72 72 72 72 73 73 73 73 74 75 75 75 74 74 74 75 74 74 74 74 75 75 75 74 74 75 75 75 75 75 74 74 74 75 75 74 74 74 74 73 74 74 73 74 74 73 73 74 73 73 72 73 73
52 51 54 57 59 60 63 62 65 68 66 65 68 67 66 65 62 66 65 67 68 68 67 63 58 58 58 57 57 57 58 58 60 61 64 65 66 67 68 68 69 70 70 71 71 72 72 72 72 73 72 73 74 74 75 74 74 74 74 76 75 75 75 74 75 75 75 75 75 75 76 74 75 75 74 74 74 75 74 74 74 74 74 74 74 73 73 73 73 73 73 74 74 74 72 72 73
48 50 51 54 59 62 62 62 64 66 67 69 67 65 66 66 65 63 64 66 66 67 66 65 58 57 57 57 57 57 58 58 59 61 63 64 65 67 68 68 69 69 70 70 71 71 72 72 72 72 72 73 73 74 74 74 73 73 74 75 74 76 74 74 75 76 75 75 75 76 75 73 74 74 74 74 75 74 74 74 74 74 74 74 74 73 73 73 73 73 73 73 73 73 72 72 73
45 46 48 53 59 61 62 62 64 66 67 67 66 65 66 65 64 63 67 67 68 67 66 64 57 56 56 56 57 57 57 58 59 60 61 63 64 66 67 68 68 69 70 70 70 71 71 72 71 71 72 72 73 73 73 73 73 73 74 74 73 76 74 74 75 75 75 75 75 74 74 73 73 74 74 74 74 73 73 73 73 74 74 74 73 72 73 72 72 72 73 73 73 73 73 74 74
38 34 41 51 59 60 61 62 62 64 65 66 65 65 66 65 64 63 66 66 67 68 66 65 57 56 56 56 57 57 57 58 58 59 61 62 63 65 66 67 68 69 70 70 70 71 72 71 71 72 72 73 73 73 73 73 73 73 74 73 73 75 74 75 75 75 74 73 74 74 74 74 73 74 74 74 73 72 72 72 72 72 73 73 73 73 73 73 73 73 73 73 72 72 73 74 75
31 30 30 42 59 59 62 62 63 64 64 66 66 64 66 67 65 65 64 68 69 67 66 62 57 56 56 57 57 58 57 58 59 59 60 62 63 64 65 67 68 69 69 69 70 71 71 71 71 72 71 72 73 72 73 73 72 72 73 73 73 74 74 74 73 74 74 73 74 73 74 74 74 74 74 73 72 72 72 72 72 72 72 73 74 73 72 73 73 73 73 74 74 74 73 73 74
33 30 27 43 58 58 62 63 63 63 63 65 66 63 61 64 61 64 65 68 67 67 66 60 57 56 56 58 58 59 58 58 58 58 59 62 63 64 65 67 67 68 69 69 70 71 71 70 71 72 71 72 72 72 72 72 72 72 72 72 73 74 73 73 71 72 72 73 73 73 74 74 75 74 74 73 74 72 72 72 72 72 72 72 73 74 73 73 73 73 72 74 73 73 72 72 74
34 32 28 39 55 57 61 62 62 61 62 63 60 54 57 61 62 63 65 68 67 65 64 60 57 57 57 58 58 58 59 59 58 59 59 61 62 64 65 67 67 68 68 69 69 70 71 71 72 72 71 71 71 71 72 72 72 71 72 71 73 73 72 71 72 72 73 72 72 73 74 75 74 74 74 73 73 72 72 72 72 72 73 73 73 73 73 73 72 72 72 73 75 72 71 71 72
32 32 29 27 50 52 59 60 60 59 62 63 58 53 55 59 62 63 65 66 64 64 63 64 57 57 57 58 59 59 60 60 59 59 59 60 62 64 65 66 67 67 68 68 69 70 71 71 71 71 72 71 72 72 72 72 72 72 71 71 71 72 72 72 72 72 72 72 72 73 74 74 73 74 74 73 72 72 72 72 72 72 72 72 73 73 73 72 72 71 73 72 72 71 71 72 72
32 29 25 25 30 33 58 59 58 58 62 63 60 52 51 56 59 62 66 65 65 63 63 63 57 57 57 58 59 59 60 60 59 59 59 59 61 63 64 65 67 66 66 67 69 69 69 71 72 71 72 71 71 72 72 71 71 72 71 72 71 72 72 73 72 72 72 72 73 73 74 74 74 74 74 73 72 72 72 72 72 73 73 73 72 72 72 72 72 72 73 73 71 71 71 70 72
32 29 27 25 30 34 57 58 57 58 61 62 59 52 56 56 59 63 65 64 64 62 63 62 59 57 57 58 59 59 60 59 59 59 59 59 60 63 63 65 66 66 66 67 68 69 69 70 72 71 71 71 71 71 71 71 71 71 71 72 71 72 72 73 72 73 73 72 73 74 74 74 73 74 76 74 72 72 72 72 73 73 74 73 72 72 72 72 71 72 72 74 71 70 71 70 71
31 32 28 25 24 26 40 57 58 59 60 58 60 56 54 56 60 63 65 64 63 62 61 61 58 57 57 58 59 59 59 59 59 59 59 59 59 61 62 66 65 65 65 66 68 68 69 70 70 71 71 71 70 71 71 71 70 71 71 71 73 71 72 72 73 74 73 74 75 75 74 75 74 75 76 74 73 72 72 72 72 73 73 73 72 72 72 72 73 73 73 74 73 71 71 69 69
30 32 29 25 24 23 30 55 56 58 59 56 58 56 54 57 61 62 65 65 63 62 62 64 57 57 57 57 58 58 59 58 58 59 58 58 58 60 62 64 64 65 65 65 67 67 70 70 70 71 71 70 70 70 71 70 71 71 71 70 72 71 72 72 73 74 75 76 76 75 75 75 75 75 75 75 74 74 73 72 72 72 73 73 72 72 72 73 74 74 74 73 74 72 69 68 68
29 31 26 23 20 20 22 47 57 58 57 54 55 53 54 58 61 61 63 66 64 64 63 64 64 57 57 56 57 57 58 58 58 59 58 58 58 59 62 63 63 64 64 64 66 67 69 69 69 70 70 70 70 70 71 70 71 70 69 69 70 72 70 72 72 73 75 75 76 76 76 76 76 76 75 75 76 75 74 73 72 72 73 73 73 72 73 74 74 74 73 73 74 74 74 69 69
31 30 29 28 26 23 21 27 58 57 55 53 53 52 55 58 60 61 62 62 63 63 61 61 60 58 57 56 56 56 57 57 56 58 58 58 57 59 61 62 62 63 64 63 64 66 68 68 69 69 69 69 69 69 70 70 69 69 68 68 68 71 70 71 72 73 74 75 76 76 77 76 76 76 76 75 75 77 75 74 73 73 74 74 73 73 74 74 74 73 73 75 74 72 72 72 68
30 29 28 27 26 23 23 21 56 56 52 51 52 52 54 57 59 60 61 61 60 60 59 59 59 58 58 57 56 56 56 56 55 56 58 58 57 58 60 61 63 62 62 62 63 66 67 68 68 69 69 69 69 69 70 69 69 68 67 67 68 70 70 71 71 73 74 75 76 76 77 77 77 76 76 75 75 76 76 75 75 74 75 75 74 75 74 77 76 74 75 73 74 72 68 69 69
29 27 27 25 24 22 21 23 54 55 51 50 51 50 52 56 58 59 60 60 59 59 59 57 58 58 58 58 57 57 56 56 54 56 57 57 57 57 59 60 61 61 61 62 63 66 67 68 68 69 68 69 69 69 70 69 69 69 67 68 68 69 70 71 72 73 74 75 76 76 77 77 77 76 75 76 76 76 75 75 75 76 76 76 75 74 75 74 74 74 74 71 70 71 70 70 68
28 27 26 23 23 21 17 18 53 53 48 48 51 48 51 54 57 58 59 59 58 59 58 58 59 58 58 58 58 57 57 56 55 56 56 56 57 57 57 58 60 60 61 61 63 65 68 69 68 68 68 69 69 69 70 69 70 69 68 68 68 69 68 71 72 74 74 74 75 76 76 77 77 76 76 76 76 76 75 75 75 75 75 75 74 74 74 73 74 73 73 75 72 63 65 64 71
24 24 24 23 22 19 17 17 36 56 55 54 53 49 50 51 52 55 57 58 58 58 58 59 59 59 59 60 60 59 58 57 56 55 56 56 57 56 57 58 59 59 60 60 63 65 67 68 68 68 68 69 69 70 70 70 71 69 69 68 69 69 70 69 71 73 73 74 75 75 75 76 77 77 77 77 76 75 75 75 74 74 74 75 75 74 74 74 74 73 73 74 72 67 64 66 68
23 20 20 21 21 20 18 18 26 44 52 51 49 49 48 50 51 53 55 56 56 58 57 58 59 59 59 59 58 59 60 58 57 55 56 56 57 56 57 58 58 58 59 61 62 65 67 68 68 68 68 70 69 70 70 70 70 68 67 66 65 65 66 67 70 71 72 73 73 75 75 76 77 77 77 76 76 76 75 75 74 74 74 75 75 75 75 75 73 73 74 73 73 73 67 66 63
20 19 18 18 18 18 18 15 11 17 30 38 48 45 44 48 51 52 54 54 55 57 57 57 58 59 60 60 59 59 59 58 57 57 56 56 57 56 56 57 58 58 59 61 62 64 67 67 68 68 69 70 70 70 70 70 69 68 67 65 65 65 65 66 69 72 72 72 73 74 75 75 76 76 76 76 76 76 75 75 75 74 75 75 76 75 75 74 74 74 74 73 72 75 70 64 65
19 19 18 18 18 18 17 15 10 17 27 46 51 50 47 46 48 52 54 54 54 56 57 57 58 59 59 60 60 60 59 58 57 57 56 56 57 56 56 57 58 57 59 61 62 64 67 67 68 68 69 70 70 70 70 70 69 67 67 66 66 64 64 65 67 71 72 73 72 74 74 74 75 75 75 76 76 76 76 75 75 75 75 75 76 76 75 75 75 75 75 73 73 74 72 65 65
21 21 19 18 18 18 16 14 11 14 16 27 45 47 46 45 47 50 53 53 53 54 56 57 58 59 59 60 60 60 59 59 58 58 56 56 57 57 57 57 58 57 59 60 61 64 67 67 68 69 69 70 70 71 70 69 69 67 66 66 65 65 64 65 67 70 71 72 71 73 74 74 74 75 75 75 76 76 76 75 75 75 75 75 77 76 76 75 75 74 73 72 74 74 73 70 67
22 21 21 20 20 21 21 17 15 25 13 19 42 43 38 39 47 48 52 53 53 53 55 56 57 59 59 60 60 60 60 59 59 58 57 57 57 57 57 58 58 57 59 61 61 64 66 67 68 69 69 70 70 71 70 69 68 68 66 66 64 64 65 66 66 68 70 70 70 71 72 73 73 74 74 75 76 75 75 75 75 75 75 76 77 76 76 75 74 74 73 72 74 74 75 73 69
23 21 20 19 19 24 28 26 24 19 13 19 17 29 30 17 42 48 50 51 53 53 54 56 57 59 59 60 60 60 60 60 59 59 58 57 58 58 57 58 58 58 58 60 61 64 66 67 67 69 69 69 70 70 70 68 68 68 66 66 64 64 64 65 65 67 67 68 70 70 71 72 73 72 74 74 75 75 75 76 75 75 75 76 77 76 75 75 74 74 74 74 75 74 72 75 76
19 25 23 19 22 23 26 27 29 14 18 30 21 12 13 12 27 48 51 52 52 53 53 54 57 58 59 59 59 60 60 60 60 59 59 58 58 58 58 58 58 58 59 59 60 63 66 66 67 68 69 69 69 70 70 68 67 67 67 67 65 64 65 65 64 66 65 66 69 70 70 72 72 72 74 73 75 75 76 75 76 75 75 75 76 76 75 75 74 74 75 75 74 73 73 73 72
26 19 25 20 24 21 19 21 16 14 14 22 18 12 17 16 27 47 49 51 51 52 53 53 57 58 59 59 59 60 60 60 60 59 59 59 58 58 58 58 59 58 59 59 60 62 65 66 67 67 68 69 69 69 69 68 67 66 66 67 65 66 65 65 64 65 65 65 67 69 70 71 72 71 73 73 74 74 75 75 75 75 75 75 76 76 75 75 73 75 76 75 74 73 73 74 72
16 19 27 20 19 17 14 24 21 20 18 19 15 14 14 26 16 36 49 50 50 50 51 52 56 59 59 59 59 59 60 60 60 59 59 60 59 59 58 58 59 59 59 59 61 62 65 65 66 67 68 69 69 69 69 68 67 66 66 66 66 67 66 64 64 64 66 65 67 69 70 70 71 71 72 73 73 74 74 75 75 75 75 75 75 75 74 74 74 75 76 75 75 74 74 74 72
19 19 20 23 23 19 17 19 12 12 14 16 18 14 21 9 22 23 44 49 49 49 50 52 56 59 59 59 59 59 59 60 60 59 59 60 59 59 59 58 60 60 59 59 60 61 64 65 66 67 67 68 69 68 68 68 67 67 66 66 66 66 67 65 63 65 66 66 67 68 70 70 71 71 71 73 73 74 74 74 74 74 74 74 75 74 73 74 74 75 76 75 75 75 75 74 73
18 20 22 20 22 26 18 24 21 24 20 18 22 17 21 14 28 29 39 47 48 49 49 52 56 58 59 59 58 58 59 59 59 59 59 60 60 60 59 59 60 60 59 60 60 62 63 65 66 66 67 68 68 69 67 67 67 67 66 65 66 66 68 67 65 66 66 66 66 68 69 70 71 71 71 72 73 73 74 74 74 74 75 74 74 73 73 74 74 75 75 74 74 76 74 74 73
21 17 21 19 23 18 24 33 27 26 20 15 31 17 17 18 15 11 20 41 47 48 48 51 54 58 58 58 58 58 58 59 59 59 59 60 60 60 60 59 59 61 60 60 61 63 63 65 66 66 67 68 68 69 67 67 67 67 67 65 65 66 66 66 65 65 65 65 66 67 68 69 71 71 71 72 72 73 74 74 74 74 75 74 74 74 74 74 74 74 74 74 74 74 74 73 74
19 17 18 20 21 21 21 16 24 19 15 20 23 20 20 14 17 24 16 31 43 46 47 50 53 57 57 58 58 58 58 58 59 59 59 60 60 60 60 60 59 60 61 61 62 63 64 64 65 65 66 68 68 69 68 67 66 66 67 66 65 66 65 65 66 65 65 65 65 66 68 69 70 71 72 72 72 72 73 76 74 73 74 75 74 74 74 74 74 73 74 74 74 74 74 74 74
18 17 20 18 24 18 25 21 14 13 17 18 18 19 23 21 18 21 11 11 23 43 46 48 52 56 57 57 58 58 58 58 58 58 59 59 60 60 60 60 60 60 62 62 63 64 65 65 65 65 66 67 68 69 69 68 67 66 66 66 65 65 65 65 65 66 67 65 64 65 65 68 69 70 72 72 72 72 73 74 74 73 73 74 75 74 74 74 74 73 74 74 74 74 73 73 73
19 18 16 19 20 29 24 22 25 21 20 21 18 24 20 24 15 14 10 10 12 40 43 47 52 55 56 57 57 57 57 57 57 58 58 59 60 59 60 60 60 60 61 62 63 64 65 65 66 66 66 66 67 69 69 68 67 66 66 66 66 65 65 65 65 65 66 67 66 65 65 66 68 70 70 70 71 72 73 73 74 73 73 73 74 74 74 74 74 74 74 73 74 74 74 74 73
17 15 15 23 25 23 23 24 20 19 24 20 22 19 28 29 37 40 44 44 34 38 45 47 51 54 56 56 56 57 57 56 56 57 58 59 60 60 60 60 61 61 62 63 63 64 65 66 66 66 66 67 67 68 69 69 68 67 67 66 66 66 65 65 65 65 65 67 67 67 66 65 67 69 70 69 69 70 72 73 73 73 73 73 74 74 74 74 74 74 74 74 74 74 73 74 74
17 16 17 25 25 25 22 21 26 21 19 20 18 18 29 34 46 45 47 48 48 37 45 47 51 53 55 56 56 56 56 56 56 57 58 59 60 60 60 61 61 62 63 63 63 64 65 66 67 67 67 67 67 67 69 69 69 68 67 66 66 66 66 65 65 65 64 65 67 68 67 67 67 68 70 69 69 69 70 72 73 73 73 73 73 74 74 74 74 74 73 74 74 74 73 73 74